Regional Weather Roundup
Issued by NWS State College, PA

Home | Current Version | Previous Version | Graphics & Text | Print | Product List | Glossary Off
Versions: 1 2 3 4 5 6 7 8 9 10 11 12 13 14 15 16 17 18 19 20 21 22 23 24 25 26 27 28 29 30 31 32 33 34 35 36 37 38 39 40 41 42 43 44 45 46 47 48 49 50

000
ASUS41 KCTP 020610
RWRCTP

REGIONAL WEATHER ROUNDUP
NATIONAL WEATHER SERVICE STATE COLLEGE PA
200 AM EDT SUN AUG 02 2015

Note: "fair" indicates few or no clouds below 12,000 feet with no
significant weather and/or obstructions to visibility.

* = STATION THAT DOES NOT REPORT PRECIPITATION /E.G. RAIN...SNOW...ETC/
    THUNDER OR FOG.

PAZ002>004-007>009-013>016-020>023-029>032-020700-
WESTERN PENNSYLVANIA

CITY           SKY/WX    TMP DP  RH WIND       PRES   REMARKS
ERIE           PTCLDY    68  54  60 S8        29.89S
MEADVILLE      PTCLDY    64  51  62 S6        29.94S
FRANKLIN*      CLEAR     57  48  72 SW5       29.96S
NEW CASTLE     FAIR      60  58  93 CALM      29.96S
BEAVER COUNTY  NOT AVBL
BUTLER*        FAIR      59  55  88 CALM      29.97F
PITTSBURGH INT FAIR      67  56  67 SW5       29.96S
PITTSBURGH     CLEAR     67  52  58 SW8       29.96S
INDIANA*       CLOUDY    66  61  82 CALM      30.00S
LATROBE        NOT AVBL
WASHINGTON CO* NOT AVBL
$$

PAZ004>006-010>012-017>019-024>028-033>037-041-042-045-046-049>053-020700-
CENTRAL PENNSYLVANIA

CITY           SKY/WX    TMP DP  RH WIND       PRES   REMARKS
BRADFORD       CLEAR     51  49  92 CALM      29.96S
DUBOIS         CLEAR     61  57  87 S3        29.96S
CLEARFIELD     CLEAR     58  55  90 SW3       29.97S
JOHNSTOWN      PTCLDY    63  52  67 SW7       30.01R
ALTOONA        PTCLDY    62  57  83 CALM      29.98S
STATE COLLEGE  MOCLDY    60  57  89 S5        29.95S
WILLIAMSPORT   CLEAR     61  57  87 CALM      29.90F
SELINSGROVE    CLEAR     58  57  97 CALM      29.93R
FT INDIANTOWN  CLEAR     73  56  54 NW8       29.91R
CAPITAL CITY   PTCLDY    68  57  68 W6        29.91R
HARRISBURG     PTCLDY    72  58  61 NW5       29.90R
YORK           CLEAR     62  59  90 CALM      29.92R
$$

PAZ038>040-043-044-047-048-054-055-060>062-067>071-020700-
EASTERN PENNSYLVANIA

CITY           SKY/WX    TMP DP  RH WIND       PRES   REMARKS
SCRANTON       CLEAR     61  56  83 E5        29.91S
MOUNT POCONO   CLEAR     56  53  90 W3        29.94S
ALLENTOWN      CLEAR     64  58  80 SW6       29.89S
QUAKERTOWN*    CLEAR     70  57  64 NW3       29.91R
READING        CLEAR     67  59  75 CALM      29.89S
LANCASTER      CLEAR     67  58  72 W3        29.91R
COATESVILLE    CLEAR     68  59  73 SW6       29.93R
POTTSTOWN      CLEAR     65  60  84 N3        29.90S
BLUE BELL      NOT AVBL
DOYLESTOWN     PTCLDY    66  59  78 SE5       29.89R
WILLOW GROVE   NOT AVBL
NORTH PHILA    CLEAR     73  57  57 CALM      29.90R
PHILADELPHIA   PTCLDY    74  62  66 W3        29.89S
$$


USA.gov is the U.S. government's official web portal to all federal, state and local government web resources and services.